Flag for Germany Weather past 2 weeks in Braunschweig, Lower Saxony, Germany

Now
34 °F

Passing clouds.


Feels Like: 31 °F
Forecast: 32 / 37 °F
Wind: 3 mph from South

Location: Celle Airport

Current Time: Jan 30, 2015 at 1:34:03 AM

Latest Report: Jan 30, 2015 at 12:20 AM


Visibility: N/A

Pressure: 28.74 "Hg

Humidity: 93%

Dew point: 32 °F

Location of BraunschweigLocation

Historic Weather in Braunschweig — Graph

°F

Braunschweig temperature yesterday

Maximum temperature yesterday: 37 °F (at 1:20 AM)
Minimum temperature yesterday: 32 °F (at 10:20 PM)
Average temperature yesterday: 35 °F

Past Weeks' High & Low Weather Summary

 TemperatureHumidityPressure
High52 °F (Jan 15, 9:20 PM)100% (Jan 19, 12:20 AM)30.33 "Hg (Jan 19, 12:20 AM)
Low23 °F (Jan 21, 5:20 AM)57% (Jan 16, 11:20 AM)28.74 "Hg (Jan 30, 12:20 AM)
Average35 °F87%29.89 "Hg
* Reported Jan 15 12:20 AM — Jan 30 12:20 AM, Braunschweig, Weather by CustomWeather, © 2014

Note: Actual official high and low records may vary slightly from our data, if they occured in-between our weather recording intervals... More about our weather records

Advertising

Braunschweig weather history for previous 24 hours

 ConditionsComfort  
Time TempWeatherWind HumidityBarometerVisibility
12:20 AM
Jan 30
34 °FPassing clouds.3 mph93%28.74 "HgN/A
11:20 PM
Jan 29
32 °FPartly cloudy.5 mph100%28.77 "HgN/A
10:20 PM32 °FPartly cloudy.5 mph100%28.80 "HgN/A
9:20 PM34 °FPassing clouds.6 mph93%28.82 "HgN/A
8:20 PM34 °FSnow flurries. Passing clouds.1 mph93%28.85 "Hg3 mi
7:20 PM34 °FPartly cloudy.10 mph93%28.88 "HgN/A
6:20 PM34 °FPartly cloudy.10 mph87%28.91 "HgN/A
5:20 PM36 °FPartly cloudy.12 mph87%28.94 "HgN/A
4:20 PM36 °FBroken clouds.7 mph93%28.97 "HgN/A
3:20 PM36 °FPartly sunny.8 mph87%29.00 "HgN/A
2:20 PM36 °FScattered clouds.9 mph93%29.03 "HgN/A
1:20 PM34 °FSnow showers. Partly sunny.10 mph93%29.09 "Hg1 mi
12:20 PM36 °FPartly sunny.13 mph93%29.09 "Hg5 mi
11:52 AM36 °FSnow flurries. Partly sunny.13 mph87%29.12 "Hg3 mi
11:20 AM36 °FSnow flurries. Partly sunny.13 mph87%29.15 "Hg5 mi
10:20 AM36 °FSnow showers. Partly sunny.14 mph87%29.15 "Hg1 mi
9:50 AM36 °FSnow showers. Partly sunny.17 mph75%29.18 "Hg2 mi
9:20 AM37 °FBroken clouds.18 mph70%29.18 "HgN/A
8:45 AM36 °FSnow flurries. Partly sunny.18 mph75%29.18 "HgN/A
8:20 AM36 °FPartly sunny.16 mph75%29.18 "HgN/A
7:20 AM36 °FPartly cloudy.16 mph75%29.21 "HgN/A
6:20 AM36 °FPartly cloudy.15 mph75%29.21 "HgN/A
5:20 AM36 °FPassing clouds.17 mph75%29.24 "HgN/A
4:20 AM36 °FPassing clouds.16 mph75%29.27 "HgN/A
3:20 AM37 °FPassing clouds.22 mph70%29.27 "HgN/A
2:20 AM37 °FSprinkles. Partly cloudy.17 mph75%29.27 "HgN/A
1:20 AM37 °FPassing clouds.21 mph81%29.27 "HgN/A
Weather by CustomWeather, © 2014

See weather overviewHow to use our weather pages